Location: Newark
(50.4348°N, 30.5552°E)
Time: 16:01:27
(UTC+00:00)

SR - All Passes

Search period start: 28 January 2020 00:00
Search period end: 07 February 2020 00:00
Orbit: 574 x 882 km, 66.7° (Epoch: 27 January)

Date Brightness Start Highest point End Pass type
(mag) Time Alt. Az. Time Alt. Az. Time Alt. Az.
28 Jan - 00:14:54 10° NW 00:18:22 16° N 00:21:46 10° NE visible
28 Jan - 01:57:52 10° NNW 02:02:33 25° NNE 02:06:59 10° E visible
28 Jan - 03:39:56 10° NW 03:45:38 76° NE 03:50:51 10° SE visible
28 Jan - 05:22:59 10° WNW 05:27:05 22° WSW 05:30:58 10° SSW daylight
28 Jan - 18:15:11 10° SSE 18:19:26 21° ESE 18:23:44 10° ENE night (unlit)
28 Jan - 19:54:59 10° SW 20:00:55 87° NW 20:06:52 10° NE night (unlit)
28 Jan - 21:38:44 10° W 21:43:49 28° NNW 21:48:50 10° NNE night (unlit)
28 Jan - 23:24:18 10° NW 23:27:53 16° N 23:31:23 10° NNE visible
29 Jan - 01:08:07 10° NNW 01:12:14 19° NNE 01:16:11 10° ENE visible
29 Jan - 02:50:15 10° NNW 02:55:46 48° NE 03:00:52 10° ESE visible
29 Jan - 04:32:41 10° NW 04:37:49 38° WSW 04:42:32 10° S visible
29 Jan - 17:28:34 10° ESE 17:30:19 11° E 17:32:04 10° E night (unlit)
29 Jan - 19:05:31 10° SSW 19:11:16 58° ESE 19:17:05 10° NE night (unlit)
29 Jan - 20:48:09 10° WSW 20:53:42 39° NW 20:59:13 10° NNE night (unlit)
29 Jan - 22:33:26 10° WNW 22:37:26 18° NNW 22:41:21 10° NNE night (unlit)
30 Jan - 00:18:10 10° NNW 00:21:49 17° N 00:25:21 10° NE visible
30 Jan - 02:00:36 10° NNW 02:05:44 32° NE 02:10:31 10° E visible
30 Jan - 03:42:44 10° NW 03:48:20 68° WSW 03:53:26 10° SSE visible
30 Jan - 05:27:16 10° W 05:29:17 12° W 05:31:14 10° WSW daylight
30 Jan - 18:16:34 10° S 18:21:49 34° ESE 18:27:05 10° NE night (unlit)
30 Jan - 19:57:53 10° SW 20:03:45 59° NW 20:09:35 10° NNE night (unlit)
30 Jan - 21:42:30 10° WNW 21:47:04 22° NNW 21:51:33 10° NNE night (unlit)
30 Jan - 23:27:54 10° NW 23:31:20 16° N 23:34:41 10° NE visible
31 Jan - 01:10:56 10° NNW 01:15:32 24° NNE 01:19:53 10° E visible
31 Jan - 02:52:58 10° NW 02:58:39 73° NE 03:03:50 10° SE visible
31 Jan - 04:35:58 10° WNW 04:40:09 23° WSW 04:44:06 10° SSW visible
31 Jan - 17:28:24 10° SSE 17:32:31 20° ESE 17:36:41 10° ENE night (unlit)
31 Jan - 19:08:01 10° SW 19:13:57 89° SE 19:19:54 10° NE night (unlit)
31 Jan - 20:51:42 10° W 20:56:49 29° NNW 21:01:53 10° NNE night (unlit)
31 Jan - 22:37:16 10° NW 22:40:51 16° N 22:44:21 10° NNE night (unlit)
01 Feb - 00:21:10 10° NNW 00:25:12 19° NNE 00:29:05 10° ENE visible
01 Feb - 02:03:18 10° NNW 02:08:47 46° NE 02:13:49 10° ESE visible
01 Feb - 03:45:42 10° NW 03:50:52 40° WSW 03:55:36 10° S visible
01 Feb - 16:42:11 10° ESE 16:43:24 11° E 16:44:38 10° E visible
01 Feb - 18:18:36 10° SSW 18:24:20 55° ESE 18:30:06 10° NE visible
01 Feb - 20:01:08 10° WSW 20:06:43 41° NW 20:12:15 10° NNE night (unlit)
01 Feb - 21:46:22 10° WNW 21:50:24 18° NNW 21:54:21 10° NNE night (unlit)
01 Feb - 23:31:12 10° NNW 23:34:46 16° N 23:38:15 10° NE night (unlit)
02 Feb - 01:13:40 10° NNW 01:18:43 31° NE 01:23:26 10° E visible
02 Feb - 02:55:47 10° NW 03:01:23 72° WSW 03:06:27 10° SSE visible
02 Feb - 04:40:05 10° WNW 04:42:21 13° WSW 04:44:34 10° SW visible
02 Feb - 17:29:43 10° S 17:34:53 33° ESE 17:40:05 10° NE visible
02 Feb - 19:10:54 10° SW 19:16:46 61° NW 19:22:38 10° NNE visible
02 Feb - 20:55:26 10° WNW 21:00:03 23° NNW 21:04:34 10° NNE night (unlit)
02 Feb - 22:40:52 10° NW 22:44:17 16° N 22:47:37 10° NE night (unlit)
03 Feb - 00:23:59 10° NNW 00:28:30 23° NNE 00:32:47 10° ENE visible
03 Feb - 02:06:02 10° NW 02:11:40 69° NE 02:16:48 10° SE visible
03 Feb - 03:48:57 10° WNW 03:53:14 24° WSW 03:57:14 10° SSW visible
03 Feb - 16:41:37 10° SSE 16:45:36 19° ESE 16:49:37 10° ENE visible
03 Feb - 18:21:03 10° SSW 18:27:00 86° SE 18:32:56 10° NE visible
03 Feb - 20:04:38 10° W 20:09:49 30° NNW 20:14:54 10° NNE visible
03 Feb - 21:50:13 10° NW 21:53:48 16° N 21:57:19 10° NNE night (unlit)
03 Feb - 23:34:12 10° NNW 23:38:10 19° NNE 23:41:58 10° ENE night (unlit)
04 Feb - 01:16:22 10° NNW 01:21:47 44° NE 01:26:45 10° ESE visible
04 Feb - 02:58:44 10° NW 03:03:54 42° WSW 03:08:40 10° S visible
04 Feb - 17:31:40 10° SSW 17:37:23 53° ESE 17:43:07 10° NE visible
04 Feb - 19:14:07 10° WSW 19:19:44 42° NW 19:25:17 10° NNE visible
04 Feb - 20:59:19 10° WNW 21:03:22 19° NNW 21:07:21 10° NNE night (unlit)
04 Feb - 22:44:12 10° NNW 22:47:44 16° N 22:51:09 10° NE night (unlit)
05 Feb - 00:26:44 10° NNW 00:31:42 30° NNE 00:36:21 10° E visible
05 Feb - 02:08:49 10° NW 02:14:24 75° WSW 02:19:28 10° SSE visible
05 Feb - 03:52:56 10° WNW 03:55:26 13° WSW 03:57:51 10° SW visible
05 Feb - 16:42:51 10° S 16:47:57 31° ESE 16:53:05 10° NE visible
05 Feb - 18:23:54 10° SW 18:29:48 64° NW 18:35:39 10° NNE visible
05 Feb - 20:08:22 10° WNW 20:13:01 23° NNW 20:17:35 10° NNE visible
05 Feb - 21:53:51 10° NW 21:57:15 15° N 22:00:33 10° NE night (unlit)
05 Feb - 23:37:02 10° NNW 23:41:29 22° NNE 23:45:41 10° ENE night (unlit)
06 Feb - 01:19:05 10° NW 01:24:41 66° NE 01:29:47 10° SE visible
06 Feb - 03:01:56 10° NW 03:06:18 25° WSW 03:10:21 10° SSW visible
06 Feb - 15:54:51 10° SE 15:58:41 18° ESE 16:02:33 10° ENE visible
06 Feb - 17:34:06 10° SSW 17:40:02 83° ESE 17:45:57 10° NE visible
06 Feb - 19:17:36 10° W 19:22:48 31° NW 19:27:55 10° NNE visible
06 Feb - 21:03:10 10° NW 21:06:46 16° N 21:10:17 10° NNE visible
06 Feb - 22:47:15 10° NNW 22:51:08 18° NNE 22:54:51 10° ENE night (unlit)
